Regional Weather Roundup
Issued by NWS

Home | Current Version | Previous Version | Graphics & Text | Print | Product List | Glossary Off
Versions: 1 2 3 4 5 6 7 8 9 10 11 12 13 14 15 16 17 18 19 20 21 22 23 24 25 26 27 28 29 30 31 32 33 34 35 36 37 38 39 40 41 42 43 44 45 46 47 48 49 50

000
ASUS43 KDMX 292207
RWRIA

WEATHER ROUNDUP FOR IOWA
NATIONAL WEATHER SERVICE DES MOINES IA
500 PM CDT FRI AUG 29 2014

NOTE: "FAIR" INDICATES FEW OR NO CLOUDS BELOW 12,000 FEET WITH NO
SIGNIFICANT WEATHER AND/OR OBSTRUCTIONS TO VISIBILITY.

* - THESE STATIONS ARE NOT NWS STATIONS...THUS NOT UNDER NWS
QUALITY CONTROL.  THEY ALSO DO NOT REPORT WEATHER SUCH
AS PRECIPITATION OR FOG.

IAZ001>003-012>014-020>022-031>034-043>046-292300-
   NORTHWEST IOWA

CITY           SKY/WX    TMP DP  RH WIND       PRES   REMARKS
CARROLL *      PTSUNNY   75  68  78 S5        29.78S
CHEROKEE *     CLOUDY    72  68  88 CALM      29.77S
DENISON *      MOSUNNY   73  70  88 SE7       29.76R
LE MARS *      LGT RAIN  72  70  94 CALM      29.78S
ORANGE CITY *  PTSUNNY   73  66  78 S3        29.78S
SHELDON *      SUNNY     70  68  94 S3        29.77S
SIOUX CITY     CLOUDY    74  67  78 NW3       29.76F
SPENCER        CLOUDY    73  67  81 NW10      29.77S
STORM LAKE *   MOSUNNY   72  72 100 CALM      29.78S
$$

IAZ055>058-069>071-079>083-090>094-292300-
   SOUTHWEST IOWA

CITY           SKY/WX    TMP DP  RH WIND       PRES   REMARKS
ATLANTIC *     CLOUDY    73  68  83 S8        29.78S
AUDUBON *      MOSUNNY   75  70  83 S6        29.80R
CLARINDA *     MOSUNNY   77  70  78 S7        29.80F
COUNCIL BLFS * RAIN      70  70 100 W7        29.78R
CRESTON *      CLOUDY    72  70  94 S5        29.81S
HARLAN  *      PTSUNNY   73  70  88 S9        29.81S
RED OAK *      CLOUDY    75  70  83 S9        29.78F
SHENANDOAH *   PTSUNNY   73  68  83 SW6       29.79F
$$

IAZ047>049-059>061-072>074-084-292300-
   CENTRAL IOWA

CITY           SKY/WX    TMP DP  RH WIND       PRES   REMARKS
AMES           LGT RAIN  75  72  90 S6        29.78R FOG
ANKENY *       LGT RAIN  73  72  94 S6        29.79S
CHARITON *     CLOUDY    70  68  94 E7        29.80F
DES MOINES     LGT RAIN  74  69  85 S8        29.80R
GRINNELL*      HVY RAIN  70  64  83 S8        29.84R
KNOXVILLE *    CLOUDY    70  66  88 SE8       29.80F FOG
MARSHALLTOWN   RAIN      71  67  87 S15       29.80R FOG
PELLA *        LGT RAIN  70  68  94 S7        29.83F
PERRY *        CLOUDY    77  70  78 SE7       29.79S
$$

IAZ004>006-015-016-023>025-035-036-292300-
   NORTH CENTRAL IOWA

CITY           SKY/WX    TMP DP  RH WIND       PRES   REMARKS
ALGONA *       MOSUNNY   75  70  83 SW7       29.78S
CLARION *      MOSUNNY   77  70  78 SW8       29.78R
ESTHERVILLE    CLOUDY    72  68  87 NW7       29.77F
FORT DODGE *   CLOUDY    75  68  78 SW5       29.79R
MASON CITY     PTSUNNY   79  70  74 SW9       29.79R HX  82
FOREST CITY *  MOSUNNY   77  70  78 SW7       29.78R
IOWA FALLS *     N/A     77  70  78 SW3       29.79S
$$

IAZ007>011-017>019-026>030-037>042-050>054-066-292300-
   NORTHEAST IOWA

CITY           SKY/WX    TMP DP  RH WIND       PRES   REMARKS
CEDAR RAPIDS   PTSUNNY   81  71  71 S8        29.79S HX  85
CHARLES CITY * MOSUNNY   79  72  78 W8G15     29.77S HX  82
CLINTON *      SUNNY     84  72  65 S14       29.85S HX  89
DECORAH *      MOSUNNY   82  68  61 S12G20    29.75F HX  85
DUBUQUE        MOSUNNY   83  70  64 S14       29.83R HX  87
MONTICELLO *   SUNNY     84  72  65 S14       29.81S HX  89
OELWEIN *      SUNNY     82  70  65 S13G22    29.78F HX  86
WATERLOO       PTSUNNY   82  69  64 SW12      29.77R THUNDER HX  85
$$

IAZ064-065-067-068-078-292300-
   EAST CENTRAL IOWA

CITY           SKY/WX    TMP DP  RH WIND       PRES   REMARKS
DAVENPORT      MOSUNNY   84  70  62 S10       29.83S HX  88
IOWA CITY      PTSUNNY   82  72  71 S7        29.81S HX  87
MT. PLEASANT * CLOUDY    82  66  57 SE3       29.81S HX  85
MUSCATINE *    MOSUNNY   86  70  58 S10G17    29.81R HX  90
QUAD CITIES    MOSUNNY   86  72  62 SE8       29.82S HX  92
$$

IAZ062-063-075>077-085>089-095>099-292300-
   SOUTHEAST IOWA

CITY           SKY/WX    TMP DP  RH WIND       PRES   REMARKS
BURLINGTON     MOSUNNY   83  71  67 S6        29.81F HX  87
FAIRFIELD *    SUNNY     81  72  74 S3        29.81F HX  84
FORT MADISON * SUNNY     82  68  61 S3        29.82S HX  85
KEOKUK *       MOSUNNY   82  68  61 SE6       29.80F HX  85
OSKALOOSA *    RAIN      70  68  94 SW7       29.83R
CENTERVILLE *  SUNNY     68  68 100 E5        29.83S
OTTUMWA        LGT RAIN  71  69  93 SW7       29.81S FOG
WASHINGTON *   SUNNY     81  70  69 S8        29.80F HX  84
$$

ABBREVIATIONS USED IN REMARKS
   TC - TEMPERATURES IN CELSIUS
  WCI - WIND CHILL INDEX
   HX - HEAT INDEX
  VSB - VISIBILITY
$$



USA.gov is the U.S. government's official web portal to all federal, state and local government web resources and services.